Time,TemperatureF,DewpointF,PressureIn,WindDirection,WindDirectionDegrees,WindSpeedMPH,WindSpeedGustMPH,Humidity,HourlyPrecipIn,Conditions,Clouds,dailyrainin,SoftwareType,DateUTC
2013-02-15 00:00:00,25.5,17.6,29.74,WNW,293,0.0,0.0,72,0.00,,,0.00,WUHU216HW,2013-02-15 05:00:00,
2013-02-15 00:10:00,25.5,17.6,29.74,WNW,293,0.0,0.0,72,0.00,,,0.00,WUHU216HW,2013-02-15 05:10:00,
2013-02-15 00:15:00,24.9,17.1,29.74,WNW,293,0.0,0.0,72,0.00,,,0.00,WUHU216HW,2013-02-15 05:15:00,
2013-02-15 00:20:00,24.9,17.4,29.73,WNW,293,0.0,0.0,73,0.00,,,0.00,WUHU216HW,2013-02-15 05:20:00,
2013-02-15 00:25:00,24.8,17.3,29.74,WNW,293,0.0,0.0,73,0.00,,,0.00,WUHU216HW,2013-02-15 05:25:00,
2013-02-15 00:30:00,24.6,17.1,29.73,WNW,293,0.0,0.0,73,0.00,,,0.00,WUHU216HW,2013-02-15 05:30:00,
2013-02-15 00:35:00,24.6,17.1,29.73,WNW,293,0.0,0.0,73,0.00,,,0.00,WUHU216HW,2013-02-15 05:35:00,
2013-02-15 00:40:00,24.6,17.4,29.73,WNW,293,0.0,0.0,74,0.00,,,0.00,WUHU216HW,2013-02-15 05:40:00,
2013-02-15 00:45:00,24.6,17.4,29.73,WNW,293,0.0,0.0,74,0.00,,,0.00,WUHU216HW,2013-02-15 05:45:00,
2013-02-15 00:50:00,24.4,16.9,29.73,WNW,293,0.0,0.0,73,0.00,,,0.00,WUHU216HW,2013-02-15 05:50:00,
2013-02-15 00:56:00,24.0,16.6,29.73,WNW,293,0.0,0.0,73,0.00,,,0.00,WUHU216HW,2013-02-15 05:56:00,
2013-02-15 01:01:00,23.9,16.4,29.74,WNW,293,0.0,0.0,73,0.00,,,0.00,WUHU216HW,2013-02-15 06:01:00,
2013-02-15 01:10:00,23.9,16.4,29.74,WNW,293,0.0,0.0,73,0.00,,,0.00,WUHU216HW,2013-02-15 06:10:00,
2013-02-15 01:15:00,23.5,16.1,29.74,WNW,293,0.0,0.0,73,0.00,,,0.00,WUHU216HW,2013-02-15 06:15:00,
2013-02-15 01:20:00,23.1,15.8,29.74,WNW,293,0.0,0.0,73,0.00,,,0.00,WUHU216HW,2013-02-15 06:20:00,
2013-02-15 01:25:00,22.8,15.7,29.74,WNW,293,0.0,0.0,74,0.00,,,0.00,WUHU216HW,2013-02-15 06:25:00,
2013-02-15 01:30:00,22.8,15.7,29.75,WNW,293,0.0,0.0,74,0.00,,,0.00,WUHU216HW,2013-02-15 06:30:00,
2013-02-15 01:35:00,22.8,15.7,29.74,WNW,293,0.0,0.0,74,0.00,,,0.00,WUHU216HW,2013-02-15 06:35:00,
2013-02-15 01:40:00,22.8,15.7,29.74,WNW,293,0.0,0.0,74,0.00,,,0.00,WUHU216HW,2013-02-15 06:40:00,
2013-02-15 01:45:00,22.8,15.7,29.74,WNW,293,0.0,0.0,74,0.00,,,0.00,WUHU216HW,2013-02-15 06:45:00,
2013-02-15 01:50:00,22.8,15.7,29.74,WNW,293,0.0,0.0,74,0.00,,,0.00,WUHU216HW,2013-02-15 06:50:00,
2013-02-15 01:55:00,22.6,15.5,29.74,WNW,293,0.0,0.0,74,0.00,,,0.00,WUHU216HW,2013-02-15 06:55:00,
2013-02-15 02:01:00,22.4,15.4,29.74,WNW,293,0.0,0.0,74,0.00,,,0.00,WUHU216HW,2013-02-15 07:01:00,
2013-02-15 02:06:00,22.2,15.2,29.74,WNW,293,0.0,0.0,74,0.00,,,0.00,WUHU216HW,2013-02-15 07:06:00,
2013-02-15 02:11:00,22.1,15.0,29.73,WNW,293,0.0,0.0,74,0.00,,,0.00,WUHU216HW,2013-02-15 07:11:00,
2013-02-15 02:16:00,21.9,14.8,29.74,WNW,293,0.0,0.0,74,0.00,,,0.00,WUHU216HW,2013-02-15 07:16:00,
2013-02-15 02:21:00,21.7,14.6,29.74,WNW,293,0.0,0.0,74,0.00,,,0.00,WUHU216HW,2013-02-15 07:21:00,
2013-02-15 02:26:00,21.7,14.9,29.73,WNW,293,0.0,0.0,75,0.00,,,0.00,WUHU216HW,2013-02-15 07:26:00,
2013-02-15 02:31:00,21.5,14.8,29.74,WNW,293,0.0,0.0,75,0.00,,,0.00,WUHU216HW,2013-02-15 07:31:00,
2013-02-15 02:36:00,21.5,14.8,29.74,WNW,293,0.0,0.0,75,0.00,,,0.00,WUHU216HW,2013-02-15 07:36:00,
2013-02-15 02:41:00,21.3,14.6,29.74,WNW,293,0.0,0.0,75,0.00,,,0.00,WUHU216HW,2013-02-15 07:41:00,
2013-02-15 02:46:00,21.3,14.6,29.74,WNW,293,0.0,0.0,75,0.00,,,0.00,WUHU216HW,2013-02-15 07:46:00,
2013-02-15 02:51:00,21.2,14.7,29.74,WNW,293,0.0,0.0,76,0.00,,,0.00,WUHU216HW,2013-02-15 07:51:00,
2013-02-15 02:57:00,21.0,14.2,29.74,WNW,293,0.0,0.0,75,0.00,,,0.00,WUHU216HW,2013-02-15 07:57:00,
2013-02-15 03:02:00,21.0,14.5,29.74,WNW,293,0.0,0.0,76,0.00,,,0.00,WUHU216HW,2013-02-15 08:02:00,
2013-02-15 03:07:00,21.0,14.5,29.73,WNW,293,0.0,0.0,76,0.00,,,0.00,WUHU216HW,2013-02-15 08:07:00,
2013-02-15 03:12:00,21.0,14.5,29.73,WNW,293,0.0,0.0,76,0.00,,,0.00,WUHU216HW,2013-02-15 08:12:00,
2013-02-15 03:17:00,21.0,14.5,29.73,WNW,293,0.0,0.0,76,0.00,,,0.00,WUHU216HW,2013-02-15 08:17:00,
2013-02-15 03:22:00,21.0,14.5,29.73,WNW,293,0.0,0.0,76,0.00,,,0.00,WUHU216HW,2013-02-15 08:22:00,
2013-02-15 03:27:00,20.8,14.3,29.73,WNW,293,0.0,0.0,76,0.00,,,0.00,WUHU216HW,2013-02-15 08:27:00,
2013-02-15 03:32:00,20.8,14.3,29.73,WNW,293,0.0,0.0,76,0.00,,,0.00,WUHU216HW,2013-02-15 08:32:00,
2013-02-15 03:37:00,20.8,14.7,29.73,WNW,293,0.0,0.0,77,0.00,,,0.00,WUHU216HW,2013-02-15 08:37:00,
2013-02-15 03:42:00,20.6,14.5,29.73,WNW,293,0.0,0.0,77,0.00,,,0.00,WUHU216HW,2013-02-15 08:42:00,
2013-02-15 03:47:00,20.4,14.0,29.73,WNW,293,0.0,0.0,76,0.00,,,0.00,WUHU216HW,2013-02-15 08:47:00,
2013-02-15 03:52:00,20.3,13.8,29.73,WNW,293,0.0,0.0,76,0.00,,,0.00,WUHU216HW,2013-02-15 08:52:00,
2013-02-15 03:57:00,20.3,13.8,29.73,WNW,293,0.0,0.0,76,0.00,,,0.00,WUHU216HW,2013-02-15 08:57:00,
2013-02-15 04:02:00,20.1,13.6,29.73,WNW,293,0.0,0.0,76,0.00,,,0.00,WUHU216HW,2013-02-15 09:02:00,
2013-02-15 04:07:00,19.9,13.4,29.74,WNW,293,0.0,0.0,76,0.00,,,0.00,WUHU216HW,2013-02-15 09:07:00,
2013-02-15 04:12:00,19.7,13.3,29.73,WNW,293,0.0,0.0,76,0.00,,,0.00,WUHU216HW,2013-02-15 09:12:00,
2013-02-15 04:17:00,19.5,13.4,29.74,WNW,293,0.0,0.0,77,0.00,,,0.00,WUHU216HW,2013-02-15 09:17:00,
2013-02-15 04:22:00,19.5,13.4,29.73,WNW,293,0.0,0.0,77,0.00,,,0.00,WUHU216HW,2013-02-15 09:22:00,
2013-02-15 04:27:00,19.7,13.6,29.73,WNW,293,0.0,0.0,77,0.00,,,0.00,WUHU216HW,2013-02-15 09:27:00,
2013-02-15 04:32:00,19.9,13.8,29.74,WNW,293,0.0,0.0,77,0.00,,,0.00,WUHU216HW,2013-02-15 09:32:00,
2013-02-15 04:37:00,19.9,14.1,29.74,WNW,293,0.0,0.0,78,0.00,,,0.00,WUHU216HW,2013-02-15 09:37:00,
2013-02-15 04:42:00,20.1,14.2,29.74,WNW,293,0.0,0.0,78,0.00,,,0.00,WUHU216HW,2013-02-15 09:42:00,
2013-02-15 04:47:00,20.8,15.3,29.74,WNW,293,0.0,0.0,79,0.00,,,0.00,WUHU216HW,2013-02-15 09:47:00,
2013-02-15 04:53:00,21.0,15.4,29.74,WNW,293,0.0,0.0,79,0.00,,,0.00,WUHU216HW,2013-02-15 09:53:00,
2013-02-15 04:58:00,21.9,16.7,29.74,WNW,293,0.0,0.0,80,0.00,,,0.00,WUHU216HW,2013-02-15 09:58:00,
2013-02-15 05:03:00,22.1,16.8,29.73,WNW,293,0.0,0.0,80,0.00,,,0.00,WUHU216HW,2013-02-15 10:03:00,
2013-02-15 05:08:00,22.6,17.4,29.74,WNW,293,0.0,0.0,80,0.00,,,0.00,WUHU216HW,2013-02-15 10:08:00,
2013-02-15 05:13:00,23.0,17.7,29.73,WNW,293,0.0,0.0,80,0.00,,,0.00,WUHU216HW,2013-02-15 10:13:00,
2013-02-15 05:18:00,23.5,18.1,29.73,WNW,293,0.0,0.0,80,0.00,,,0.00,WUHU216HW,2013-02-15 10:18:00,
2013-02-15 05:23:00,23.7,18.7,29.73,WNW,293,0.0,0.0,81,0.00,,,0.00,WUHU216HW,2013-02-15 10:23:00,
2013-02-15 05:28:00,24.0,19.1,29.73,WNW,293,0.0,0.0,81,0.00,,,0.00,WUHU216HW,2013-02-15 10:28:00,
2013-02-15 05:33:00,24.0,19.1,29.74,WNW,293,0.0,0.0,81,0.00,,,0.00,WUHU216HW,2013-02-15 10:33:00,
2013-02-15 05:38:00,24.2,19.3,29.74,WNW,293,0.0,0.0,81,0.00,,,0.00,WUHU216HW,2013-02-15 10:38:00,
2013-02-15 05:43:00,24.6,19.6,29.73,WNW,293,0.0,0.0,81,0.00,,,0.00,WUHU216HW,2013-02-15 10:43:00,
2013-02-15 05:48:00,24.9,20.3,29.73,WNW,293,0.0,0.0,81,0.00,,,0.00,WUHU216HW,2013-02-15 10:48:00,
2013-02-15 05:53:00,25.7,20.9,29.73,WNW,293,0.0,0.0,82,0.00,,,0.00,WUHU216HW,2013-02-15 10:53:00,
2013-02-15 05:58:00,26.2,21.4,29.73,WNW,293,0.0,0.0,82,0.00,,,0.00,WUHU216HW,2013-02-15 10:58:00,
2013-02-15 06:04:00,26.4,21.5,29.74,WNW,293,0.0,0.0,82,0.00,,,0.00,WUHU216HW,2013-02-15 11:04:00,
2013-02-15 06:09:00,26.6,21.7,29.74,WNW,293,0.0,0.0,82,0.00,,,0.00,WUHU216HW,2013-02-15 11:09:00,
2013-02-15 06:14:00,26.7,22.2,29.74,WNW,293,0.0,0.0,83,0.00,,,0.00,WUHU216HW,2013-02-15 11:14:00,
2013-02-15 06:19:00,26.7,22.0,29.74,WNW,293,0.0,0.0,83,0.00,,,0.00,WUHU216HW,2013-02-15 11:19:00,
2013-02-15 06:23:00,26.4,21.8,29.74,WNW,293,0.0,0.0,83,0.00,,,0.00,WUHU216HW,2013-02-15 11:23:00,
2013-02-15 06:28:00,26.2,21.4,29.74,WNW,293,0.0,0.0,82,0.00,,,0.00,WUHU216HW,2013-02-15 11:28:00,
2013-02-15 06:34:00,26.0,21.5,29.74,WNW,293,0.0,0.0,83,0.00,,,0.00,WUHU216HW,2013-02-15 11:34:00,
2013-02-15 06:39:00,25.7,20.9,29.74,WNW,293,0.0,0.0,82,0.00,,,0.00,WUHU216HW,2013-02-15 11:39:00,
2013-02-15 06:44:00,25.8,21.1,29.74,WNW,293,0.0,0.0,82,0.00,,,0.00,WUHU216HW,2013-02-15 11:44:00,
2013-02-15 06:49:00,25.8,21.1,29.74,WNW,293,0.0,0.0,82,0.00,,,0.00,WUHU216HW,2013-02-15 11:49:00,
2013-02-15 06:54:00,25.8,21.1,29.74,WNW,293,0.0,0.0,82,0.00,,,0.00,WUHU216HW,2013-02-15 11:54:00,
2013-02-15 06:59:00,26.0,21.5,29.74,WNW,293,0.0,0.0,83,0.00,,,0.00,WUHU216HW,2013-02-15 11:59:00,
2013-02-15 07:04:00,26.0,21.5,29.74,WNW,293,0.0,0.0,83,0.00,,,0.00,WUHU216HW,2013-02-15 12:04:00,
2013-02-15 07:09:00,26.0,21.5,29.74,WNW,293,0.0,0.0,83,0.00,,,0.00,WUHU216HW,2013-02-15 12:09:00,
2013-02-15 07:14:00,26.2,21.7,29.74,WNW,293,0.0,0.0,83,0.00,,,0.00,WUHU216HW,2013-02-15 12:14:00,
2013-02-15 07:19:00,26.2,21.7,29.73,WNW,293,0.0,0.0,83,0.00,,,0.00,WUHU216HW,2013-02-15 12:19:00,
2013-02-15 07:24:00,26.4,21.8,29.73,West,270,0.0,0.0,83,0.00,,,0.00,WUHU216HW,2013-02-15 12:24:00,
2013-02-15 07:29:00,26.7,22.2,29.74,West,270,0.0,0.0,83,0.00,,,0.00,WUHU216HW,2013-02-15 12:29:00,
2013-02-15 07:34:00,26.9,22.4,29.73,West,270,0.0,0.0,83,0.00,,,0.00,WUHU216HW,2013-02-15 12:34:00,
2013-02-15 07:39:00,27.1,22.8,29.73,West,270,0.0,0.0,84,0.00,,,0.00,WUHU216HW,2013-02-15 12:39:00,
2013-02-15 07:44:00,27.6,23.4,29.73,West,270,0.0,0.0,84,0.00,,,0.00,WUHU216HW,2013-02-15 12:44:00,
2013-02-15 07:50:00,28.0,23.7,29.74,West,270,0.0,0.0,84,0.00,,,0.00,WUHU216HW,2013-02-15 12:50:00,
2013-02-15 07:55:00,28.5,24.3,29.74,West,270,0.0,0.0,84,0.00,,,0.00,WUHU216HW,2013-02-15 12:55:00,
2013-02-15 08:00:00,29.4,25.2,29.74,West,270,0.0,0.0,84,0.00,,,0.00,WUHU216HW,2013-02-15 13:00:00,
2013-02-15 08:05:00,30.0,25.7,29.74,West,270,0.0,0.0,84,0.00,,,0.00,WUHU216HW,2013-02-15 13:05:00,
2013-02-15 08:10:00,30.7,26.7,29.74,West,270,0.0,0.0,85,0.00,,,0.00,WUHU216HW,2013-02-15 13:10:00,
2013-02-15 08:15:00,30.9,26.9,29.74,West,270,0.0,0.0,85,0.00,,,0.00,WUHU216HW,2013-02-15 13:15:00,
2013-02-15 08:20:00,31.8,27.5,29.74,West,270,0.0,0.0,84,0.00,,,0.00,WUHU216HW,2013-02-15 13:20:00,
2013-02-15 08:25:00,32.7,28.4,29.74,WSW,248,0.0,0.0,84,0.00,,,0.00,WUHU216HW,2013-02-15 13:25:00,
2013-02-15 08:30:00,32.9,28.2,29.74,WSW,248,0.8,0.8,83,0.00,,,0.00,WUHU216HW,2013-02-15 13:30:00,
2013-02-15 08:35:00,33.4,28.7,29.74,West,270,0.0,0.8,83,0.00,,,0.00,WUHU216HW,2013-02-15 13:35:00,
2013-02-15 08:40:00,34.1,29.1,29.74,WSW,248,0.0,2.2,82,0.00,,,0.00,WUHU216HW,2013-02-15 13:40:00,
2013-02-15 08:46:00,34.3,29.0,29.74,WNW,293,0.0,2.2,81,0.00,,,0.00,WUHU216HW,2013-02-15 13:46:00,
2013-02-15 08:51:00,34.8,29.3,29.74,SW,225,0.0,0.0,80,0.00,,,0.00,WUHU216HW,2013-02-15 13:51:00,
2013-02-15 08:56:00,35.6,29.6,29.74,WSW,248,1.1,1.1,79,0.00,,,0.00,WUHU216HW,2013-02-15 13:56:00,
2013-02-15 09:01:00,36.5,30.2,29.74,WSW,248,0.0,1.1,78,0.00,,,0.00,WUHU216HW,2013-02-15 14:01:00,
2013-02-15 09:06:00,37.2,30.6,29.74,WSW,248,0.0,1.5,77,0.00,,,0.00,WUHU216HW,2013-02-15 14:06:00,
2013-02-15 09:11:00,37.9,31.0,29.74,West,270,0.0,1.5,76,0.00,,,0.00,WUHU216HW,2013-02-15 14:11:00,
2013-02-15 09:16:00,39.0,31.3,29.74,WSW,248,2.9,3.5,74,0.00,,,0.00,WUHU216HW,2013-02-15 14:16:00,
2013-02-15 09:21:00,39.7,31.4,29.74,West,270,4.6,4.6,72,0.00,,,0.00,WUHU216HW,2013-02-15 14:21:00,
2013-02-15 09:26:00,40.2,31.6,29.74,West,270,1.3,4.6,71,0.00,,,0.00,WUHU216HW,2013-02-15 14:26:00,
2013-02-15 09:31:00,41.1,31.7,29.74,WSW,248,3.1,4.6,69,0.00,,,0.00,WUHU216HW,2013-02-15 14:31:00,
2013-02-15 09:37:00,41.7,31.9,29.74,West,270,2.4,3.1,68,0.00,,,0.00,WUHU216HW,2013-02-15 14:37:00,
2013-02-15 09:42:00,42.0,31.5,29.74,WSW,248,6.0,6.0,66,0.00,,,0.00,WUHU216HW,2013-02-15 14:42:00,
2013-02-15 09:47:00,42.4,31.4,29.74,WNW,293,9.6,9.6,65,0.00,,,0.00,WUHU216HW,2013-02-15 14:47:00,
2013-02-15 09:52:00,42.6,31.2,29.74,West,270,5.8,9.6,64,0.00,,,0.00,WUHU216HW,2013-02-15 14:52:00,
2013-02-15 09:57:00,42.6,31.2,29.74,West,270,2.4,6.9,64,0.00,,,0.00,WUHU216HW,2013-02-15 14:57:00,
2013-02-15 10:02:00,42.9,31.1,29.74,West,270,0.0,8.5,63,0.00,,,0.00,WUHU216HW,2013-02-15 15:02:00,
2013-02-15 10:07:00,43.1,31.3,29.74,WSW,248,2.6,8.5,63,0.00,,,0.00,WUHU216HW,2013-02-15 15:07:00,
2013-02-15 10:12:00,43.8,31.6,29.74,West,270,7.8,7.8,62,0.00,,,0.00,WUHU216HW,2013-02-15 15:12:00,
2013-02-15 10:17:00,44.2,32.0,29.74,WNW,293,2.2,8.5,62,0.00,,,0.00,WUHU216HW,2013-02-15 15:17:00,
2013-02-15 10:22:00,44.4,31.8,29.74,West,270,6.9,8.5,61,0.00,,,0.00,WUHU216HW,2013-02-15 15:22:00,
2013-02-15 10:27:00,44.6,31.6,29.73,WSW,248,3.1,6.9,60,0.00,,,0.00,WUHU216HW,2013-02-15 15:27:00,
2013-02-15 10:32:00,44.7,31.8,29.73,South,180,2.0,9.1,60,0.00,,,0.00,WUHU216HW,2013-02-15 15:32:00,
2013-02-15 10:37:00,44.7,31.8,29.74,West,270,0.0,9.1,60,0.00,,,0.00,WUHU216HW,2013-02-15 15:37:00,
2013-02-15 10:42:00,44.9,31.9,29.74,West,270,8.2,8.2,60,0.00,,,0.00,WUHU216HW,2013-02-15 15:42:00,
2013-02-15 10:47:00,44.9,31.9,29.74,West,270,3.1,8.2,60,0.00,,,0.00,WUHU216HW,2013-02-15 15:47:00,
2013-02-15 10:52:00,44.9,31.9,29.73,WNW,293,7.8,8.2,60,0.00,,,0.00,WUHU216HW,2013-02-15 15:52:00,
2013-02-15 10:57:00,45.1,32.1,29.73,NNW,338,0.0,7.8,60,0.00,,,0.00,WUHU216HW,2013-02-15 15:57:00,
2013-02-15 11:03:00,45.1,32.1,29.73,West,270,3.1,6.2,60,0.00,,,0.00,WUHU216HW,2013-02-15 16:03:00,
2013-02-15 11:08:00,45.3,32.2,29.73,WSW,248,2.9,6.2,60,0.00,,,0.00,WUHU216HW,2013-02-15 16:08:00,
2013-02-15 11:13:00,45.3,32.2,29.73,West,270,7.1,7.1,60,0.00,,,0.00,WUHU216HW,2013-02-15 16:13:00,
2013-02-15 11:18:00,45.3,32.2,29.73,West,270,6.7,7.1,60,0.00,,,0.00,WUHU216HW,2013-02-15 16:18:00,
2013-02-15 11:23:00,45.5,32.4,29.72,NW,315,7.8,7.8,60,0.00,,,0.00,WUHU216HW,2013-02-15 16:23:00,
2013-02-15 11:28:00,45.6,32.6,29.72,SSW,203,0.0,7.8,60,0.00,,,0.00,WUHU216HW,2013-02-15 16:28:00,
2013-02-15 11:33:00,46.0,32.9,29.72,West,270,2.6,2.6,60,0.00,,,0.00,WUHU216HW,2013-02-15 16:33:00,
2013-02-15 11:38:00,46.2,32.6,29.72,NW,315,4.6,4.6,59,0.00,,,0.00,WUHU216HW,2013-02-15 16:38:00,
2013-02-15 11:43:00,46.5,32.9,29.71,SE,135,0.0,6.0,59,0.00,,,0.00,WUHU216HW,2013-02-15 16:43:00,
2013-02-15 11:48:00,46.9,33.0,29.71,NW,315,0.0,6.0,58,0.00,,,0.00,WUHU216HW,2013-02-15 16:48:00,
2013-02-15 11:53:00,47.3,32.7,29.70,West,270,7.3,7.3,57,0.00,,,0.00,WUHU216HW,2013-02-15 16:53:00,
2013-02-15 11:58:00,47.4,32.9,29.70,SE,135,2.4,7.3,57,0.00,,,0.00,WUHU216HW,2013-02-15 16:58:00,
2013-02-15 12:03:00,48.0,33.4,29.70,WSW,248,0.0,7.3,57,0.00,,,0.00,WUHU216HW,2013-02-15 17:03:00,
2013-02-15 12:08:00,48.3,33.8,29.70,SW,225,1.5,1.5,57,0.00,,,0.00,WUHU216HW,2013-02-15 17:08:00,
2013-02-15 12:13:00,48.7,34.1,29.70,West,270,0.0,1.5,57,0.00,,,0.00,WUHU216HW,2013-02-15 17:13:00,
2013-02-15 12:18:00,48.9,33.8,29.70,West,270,0.0,1.5,56,0.00,,,0.00,WUHU216HW,2013-02-15 17:18:00,
2013-02-15 12:24:00,49.1,34.0,29.69,ESE,113,0.0,1.3,56,0.00,,,0.00,WUHU216HW,2013-02-15 17:24:00,
2013-02-15 12:29:00,49.6,34.5,29.69,SSW,203,0.0,2.0,56,0.00,,,0.00,WUHU216HW,2013-02-15 17:29:00,
2013-02-15 12:34:00,49.8,34.2,29.70,West,270,2.6,3.3,55,0.00,,,0.00,WUHU216HW,2013-02-15 17:34:00,
2013-02-15 12:39:00,50.1,34.5,29.70,NNE,23,0.0,3.3,55,0.00,,,0.00,WUHU216HW,2013-02-15 17:39:00,
2013-02-15 12:44:00,50.5,34.4,29.69,NW,315,0.0,2.6,54,0.00,,,0.00,WUHU216HW,2013-02-15 17:44:00,
2013-02-15 12:49:00,50.5,34.4,29.69,West,270,2.2,8.0,54,0.00,,,0.00,WUHU216HW,2013-02-15 17:49:00,
2013-02-15 12:54:00,50.5,34.4,29.68,South,180,0.0,8.0,54,0.00,,,0.00,WUHU216HW,2013-02-15 17:54:00,
2013-02-15 12:59:00,51.0,34.9,29.67,SSW,203,0.0,2.2,54,0.00,,,0.00,WUHU216HW,2013-02-15 17:59:00,
2013-02-15 13:04:00,51.4,34.8,29.68,West,270,0.0,0.0,53,0.00,,,0.00,WUHU216HW,2013-02-15 18:04:00,
2013-02-15 13:09:00,51.6,34.9,29.67,SSE,158,0.0,0.0,53,0.00,,,0.00,WUHU216HW,2013-02-15 18:09:00,
2013-02-15 13:14:00,51.6,34.5,29.67,WSW,248,0.0,4.2,52,0.00,,,0.00,WUHU216HW,2013-02-15 18:14:00,
2013-02-15 13:19:00,51.4,34.3,29.67,ENE,68,0.0,4.2,52,0.00,,,0.00,WUHU216HW,2013-02-15 18:19:00,
2013-02-15 13:25:00,51.4,34.3,29.67,East,90,0.0,0.0,52,0.00,,,0.00,WUHU216HW,2013-02-15 18:25:00,
2013-02-15 13:30:00,51.2,34.2,29.67,WSW,248,5.3,6.7,52,0.00,,,0.00,WUHU216HW,2013-02-15 18:30:00,
2013-02-15 13:35:00,51.4,34.3,29.67,SW,225,4.2,6.7,52,0.00,,,0.00,WUHU216HW,2013-02-15 18:35:00,
2013-02-15 13:40:00,51.6,34.5,29.67,WSW,248,2.4,4.2,52,0.00,,,0.00,WUHU216HW,2013-02-15 18:40:00,
2013-02-15 13:45:00,51.9,34.4,29.67,WSW,248,1.5,2.4,51,0.00,,,0.00,WUHU216HW,2013-02-15 18:45:00,
2013-02-15 13:50:00,51.9,34.4,29.67,West,270,0.0,2.4,51,0.00,,,0.00,WUHU216HW,2013-02-15 18:50:00,
2013-02-15 13:55:00,51.9,34.4,29.67,SW,225,5.1,5.1,51,0.00,,,0.00,WUHU216HW,2013-02-15 18:55:00,
2013-02-15 14:00:00,51.9,34.4,29.67,WNW,293,6.4,6.4,51,0.00,,,0.00,WUHU216HW,2013-02-15 19:00:00,
2013-02-15 14:05:00,51.9,34.4,29.67,North,0,0.0,6.4,51,0.00,,,0.00,WUHU216HW,2013-02-15 19:05:00,
2013-02-15 14:10:00,51.9,34.4,29.67,WNW,293,2.9,4.2,51,0.00,,,0.00,WUHU216HW,2013-02-15 19:10:00,
2013-02-15 14:15:00,52.1,34.5,29.66,West,270,0.0,4.2,51,0.00,,,0.00,WUHU216HW,2013-02-15 19:15:00,
2013-02-15 14:20:00,52.3,34.2,29.66,West,270,2.0,2.9,50,0.00,,,0.00,WUHU216HW,2013-02-15 19:20:00,
2013-02-15 14:25:00,52.1,34.1,29.66,West,270,0.0,4.6,50,0.00,,,0.00,WUHU216HW,2013-02-15 19:25:00,
2013-02-15 14:30:00,52.3,34.2,29.66,West,270,0.0,4.6,50,0.00,,,0.00,WUHU216HW,2013-02-15 19:30:00,
2013-02-15 14:35:00,52.1,34.1,29.66,West,270,1.1,2.2,50,0.00,,,0.00,WUHU216HW,2013-02-15 19:35:00,
2013-02-15 14:40:00,52.1,34.1,29.66,WSW,248,2.4,2.4,50,0.00,,,0.00,WUHU216HW,2013-02-15 19:40:00,
2013-02-15 14:45:00,52.1,34.1,29.66,West,270,0.0,2.4,50,0.00,,,0.00,WUHU216HW,2013-02-15 19:45:00,
2013-02-15 14:50:00,52.1,33.5,29.66,South,180,1.7,2.4,49,0.00,,,0.00,WUHU216HW,2013-02-15 19:50:00,
2013-02-15 14:55:00,51.8,33.2,29.66,West,270,4.0,4.0,49,0.00,,,0.00,WUHU216HW,2013-02-15 19:55:00,
2013-02-15 15:01:00,51.6,33.6,29.65,WSW,248,0.0,7.1,50,0.00,,,0.00,WUHU216HW,2013-02-15 20:01:00,
2013-02-15 15:05:00,51.6,33.6,29.66,SSE,158,0.0,7.1,50,0.00,,,0.00,WUHU216HW,2013-02-15 20:05:00,
2013-02-15 15:11:00,51.6,33.6,29.65,South,180,0.0,2.2,50,0.00,,,0.00,WUHU216HW,2013-02-15 20:11:00,
2013-02-15 15:16:00,51.6,33.6,29.65,West,270,2.2,2.2,50,0.00,,,0.00,WUHU216HW,2013-02-15 20:16:00,
2013-02-15 15:21:00,51.6,33.6,29.65,West,270,3.3,3.3,50,0.00,,,0.00,WUHU216HW,2013-02-15 20:21:00,
2013-02-15 15:26:00,51.2,33.3,29.65,West,270,6.7,6.7,50,0.00,,,0.00,WUHU216HW,2013-02-15 20:26:00,
2013-02-15 15:31:00,51.0,33.1,29.65,WSW,248,0.0,6.7,50,0.00,,,0.00,WUHU216HW,2013-02-15 20:31:00,
2013-02-15 15:36:00,50.9,32.9,29.65,SSE,158,2.6,6.0,50,0.00,,,0.00,WUHU216HW,2013-02-15 20:36:00,
2013-02-15 15:41:00,50.7,32.8,29.65,West,270,6.7,6.7,50,0.00,,,0.00,WUHU216HW,2013-02-15 20:41:00,
2013-02-15 15:46:00,50.5,32.6,29.65,SE,135,0.0,6.7,50,0.00,,,0.00,WUHU216HW,2013-02-15 20:46:00,
2013-02-15 15:51:00,50.5,32.6,29.65,WSW,248,0.0,4.0,50,0.00,,,0.00,WUHU216HW,2013-02-15 20:51:00,
2013-02-15 15:56:00,50.1,32.3,29.65,NE,45,0.0,2.9,50,0.00,,,0.00,WUHU216HW,2013-02-15 20:56:00,
2013-02-15 16:01:00,49.8,32.4,29.65,WSW,248,0.0,0.0,51,0.00,,,0.00,WUHU216HW,2013-02-15 21:01:00,
2013-02-15 16:06:00,49.8,32.4,29.65,ESE,113,0.0,1.3,51,0.00,,,0.00,WUHU216HW,2013-02-15 21:06:00,
2013-02-15 16:11:00,49.6,32.2,29.65,West,270,4.4,4.4,51,0.00,,,0.00,WUHU216HW,2013-02-15 21:11:00,
2013-02-15 16:17:00,49.2,32.3,29.65,South,180,0.0,4.4,52,0.00,,,0.00,WUHU216HW,2013-02-15 21:17:00,
2013-02-15 16:22:00,49.1,32.1,29.65,West,270,0.0,0.0,52,0.00,,,0.00,WUHU216HW,2013-02-15 21:22:00,
2013-02-15 16:27:00,49.1,32.1,29.65,West,270,1.1,1.1,52,0.00,,,0.00,WUHU216HW,2013-02-15 21:27:00,
2013-02-15 16:32:00,48.9,32.0,29.66,SW,225,0.0,2.4,52,0.00,,,0.00,WUHU216HW,2013-02-15 21:32:00,
2013-02-15 16:37:00,48.5,31.6,29.66,WSW,248,0.0,2.4,52,0.00,,,0.00,WUHU216HW,2013-02-15 21:37:00,
2013-02-15 16:42:00,48.3,31.9,29.65,WSW,248,1.5,1.5,53,0.00,,,0.00,WUHU216HW,2013-02-15 21:42:00,
2013-02-15 16:47:00,48.0,31.6,29.66,West,270,0.8,5.3,53,0.00,,,0.00,WUHU216HW,2013-02-15 21:47:00,
2013-02-15 16:52:00,47.6,31.2,29.65,West,270,0.0,5.3,53,0.00,,,0.00,WUHU216HW,2013-02-15 21:52:00,
2013-02-15 16:57:00,47.1,31.2,29.65,West,270,0.0,0.0,54,0.00,,,0.00,WUHU216HW,2013-02-15 21:57:00,
2013-02-15 17:02:00,46.9,31.0,29.65,SW,225,0.0,0.0,54,0.00,,,0.00,WUHU216HW,2013-02-15 22:02:00,
2013-02-15 17:07:00,46.5,31.1,29.65,ENE,68,0.0,0.0,55,0.00,,,0.00,WUHU216HW,2013-02-15 22:07:00,
2013-02-15 17:12:00,46.0,30.6,29.66,ENE,68,0.0,0.0,55,0.00,,,0.00,WUHU216HW,2013-02-15 22:12:00,
2013-02-15 17:17:00,45.5,30.2,29.66,ENE,68,0.0,0.0,55,0.00,,,0.00,WUHU216HW,2013-02-15 22:17:00,
2013-02-15 17:22:00,44.9,30.1,29.66,ENE,68,0.0,0.0,56,0.00,,,0.00,WUHU216HW,2013-02-15 22:22:00,
2013-02-15 17:27:00,44.4,30.1,29.66,ENE,68,0.0,0.0,57,0.00,,,0.00,WUHU216HW,2013-02-15 22:27:00,
2013-02-15 17:32:00,43.7,29.4,29.66,ENE,68,0.0,0.0,57,0.00,,,0.00,WUHU216HW,2013-02-15 22:32:00,
2013-02-15 17:38:00,43.1,29.3,29.66,ENE,68,0.0,0.0,58,0.00,,,0.00,WUHU216HW,2013-02-15 22:38:00,
2013-02-15 17:43:00,42.4,29.0,29.67,ENE,68,0.0,0.0,59,0.00,,,0.00,WUHU216HW,2013-02-15 22:43:00,
2013-02-15 17:48:00,41.5,28.7,29.66,ENE,68,0.0,0.0,60,0.00,,,0.00,WUHU216HW,2013-02-15 22:48:00,
2013-02-15 17:53:00,41.1,28.3,29.67,ENE,68,0.0,0.0,60,0.00,,,0.00,WUHU216HW,2013-02-15 22:53:00,
2013-02-15 17:58:00,40.8,28.0,29.67,ENE,68,0.0,0.0,60,0.00,,,0.00,WUHU216HW,2013-02-15 22:58:00,
2013-02-15 18:03:00,40.4,28.0,29.67,ENE,68,0.0,0.0,61,0.00,,,0.00,WUHU216HW,2013-02-15 23:03:00,
2013-02-15 18:08:00,40.1,27.6,29.67,ENE,68,0.0,0.0,61,0.00,,,0.00,WUHU216HW,2013-02-15 23:08:00,
2013-02-15 18:13:00,39.9,27.8,29.67,ENE,68,0.0,0.0,62,0.00,,,0.00,WUHU216HW,2013-02-15 23:13:00,
2013-02-15 18:18:00,39.5,27.9,29.68,ENE,68,0.0,0.0,63,0.00,,,0.00,WUHU216HW,2013-02-15 23:18:00,
2013-02-15 18:23:00,39.3,27.7,29.67,ENE,68,0.0,0.0,63,0.00,,,0.00,WUHU216HW,2013-02-15 23:23:00,
2013-02-15 18:28:00,39.0,27.3,29.68,ENE,68,0.0,0.0,63,0.00,,,0.00,WUHU216HW,2013-02-15 23:28:00,
2013-02-15 18:33:00,38.4,26.9,29.68,ENE,68,0.0,0.0,63,0.00,,,0.00,WUHU216HW,2013-02-15 23:33:00,
2013-02-15 18:38:00,38.3,27.1,29.68,ENE,68,0.0,0.0,64,0.00,,,0.00,WUHU216HW,2013-02-15 23:38:00,
2013-02-15 18:43:00,38.1,27.3,29.68,ENE,68,0.0,0.0,65,0.00,,,0.00,WUHU216HW,2013-02-15 23:43:00,
2013-02-15 18:48:00,37.7,27.3,29.68,ENE,68,0.0,0.0,66,0.00,,,0.00,WUHU216HW,2013-02-15 23:48:00,
2013-02-15 18:53:00,37.5,27.2,29.68,ENE,68,0.0,0.0,66,0.00,,,0.00,WUHU216HW,2013-02-15 23:53:00,
2013-02-15 18:58:00,37.5,27.2,29.68,ENE,68,0.0,0.0,66,0.00,,,0.00,WUHU216HW,2013-02-15 23:58:00,
2013-02-15 19:03:00,37.2,26.8,29.68,ENE,68,0.0,0.0,66,0.00,,,0.00,WUHU216HW,2013-02-16 00:03:00,
2013-02-15 19:08:00,37.2,26.8,29.68,ENE,68,0.0,0.0,66,0.00,,,0.00,WUHU216HW,2013-02-16 00:08:00,
2013-02-15 19:13:00,37.0,27.0,29.68,ENE,68,0.0,0.0,67,0.00,,,0.00,WUHU216HW,2013-02-16 00:13:00,
2013-02-15 19:18:00,36.8,27.2,29.68,ENE,68,0.0,0.0,68,0.00,,,0.00,WUHU216HW,2013-02-16 00:18:00,
2013-02-15 19:23:00,36.8,27.2,29.68,ENE,68,0.0,0.0,68,0.00,,,0.00,WUHU216HW,2013-02-16 00:23:00,
2013-02-15 19:29:00,36.5,26.9,29.69,ENE,68,0.0,0.0,68,0.00,,,0.00,WUHU216HW,2013-02-16 00:29:00,
2013-02-15 19:34:00,36.1,26.5,29.69,ENE,68,0.0,0.0,68,0.00,,,0.00,WUHU216HW,2013-02-16 00:34:00,
2013-02-15 19:39:00,35.9,26.7,29.69,ENE,68,0.0,0.0,69,0.00,,,0.00,WUHU216HW,2013-02-16 00:39:00,
2013-02-15 19:44:00,35.7,26.9,29.68,ENE,68,0.0,0.0,70,0.00,,,0.00,WUHU216HW,2013-02-16 00:44:00,
2013-02-15 19:49:00,35.6,26.7,29.69,ENE,68,0.0,0.0,70,0.00,,,0.00,WUHU216HW,2013-02-16 00:49:00,
2013-02-15 19:54:00,35.4,26.2,29.69,ENE,68,0.0,0.0,69,0.00,,,0.00,WUHU216HW,2013-02-16 00:54:00,
2013-02-15 19:59:00,35.0,25.8,29.69,ENE,68,0.0,0.0,69,0.00,,,0.00,WUHU216HW,2013-02-16 00:59:00,
2013-02-15 22:20:00,31.6,24.2,29.70,ENE,68,0.0,0.0,74,0.00,,,0.00,WUHU216HW,2013-02-16 03:20:00,
2013-02-15 22:25:00,31.2,24.2,29.70,ENE,68,0.0,0.0,75,0.00,,,0.00,WUHU216HW,2013-02-16 03:25:00,
2013-02-15 22:30:00,31.2,24.2,29.70,ENE,68,0.0,0.0,75,0.00,,,0.00,WUHU216HW,2013-02-16 03:30:00,
2013-02-15 22:35:00,30.9,23.9,29.70,ENE,68,0.0,0.0,75,0.00,,,0.00,WUHU216HW,2013-02-16 03:35:00,
2013-02-15 22:40:00,30.9,23.9,29.70,ENE,68,0.0,0.0,75,0.00,,,0.00,WUHU216HW,2013-02-16 03:40:00,
2013-02-15 22:45:00,30.7,23.7,29.69,ENE,68,0.0,0.0,75,0.00,,,0.00,WUHU216HW,2013-02-16 03:45:00,
2013-02-15 22:50:00,30.7,24.3,29.70,ENE,68,0.0,0.0,77,0.00,,,0.00,WUHU216HW,2013-02-16 03:50:00,
2013-02-15 22:55:00,30.7,24.3,29.69,ENE,68,0.0,0.0,77,0.00,,,0.00,WUHU216HW,2013-02-16 03:55:00,
2013-02-15 23:00:00,30.7,24.3,29.69,ENE,68,0.0,0.0,77,0.00,,,0.00,WUHU216HW,2013-02-16 04:00:00,
2013-02-15 23:06:00,30.2,23.5,29.69,ENE,68,0.0,0.0,76,0.00,,,0.00,WUHU216HW,2013-02-16 04:06:00,
2013-02-15 23:11:00,30.0,23.6,29.69,ENE,68,0.0,0.0,77,0.00,,,0.00,WUHU216HW,2013-02-16 04:11:00,
2013-02-15 23:16:00,30.0,23.9,29.69,ENE,68,0.0,0.0,78,0.00,,,0.00,WUHU216HW,2013-02-16 04:16:00,
2013-02-15 23:21:00,29.8,23.7,29.68,ENE,68,0.0,0.0,78,0.00,,,0.00,WUHU216HW,2013-02-16 04:21:00,
2013-02-15 23:26:00,29.6,23.6,29.69,ENE,68,0.0,0.0,78,0.00,,,0.00,WUHU216HW,2013-02-16 04:26:00,
2013-02-15 23:31:00,29.4,23.4,29.68,ENE,68,0.0,0.0,78,0.00,,,0.00,WUHU216HW,2013-02-16 04:31:00,
2013-02-15 23:36:00,29.4,23.4,29.68,ENE,68,0.0,0.0,78,0.00,,,0.00,WUHU216HW,2013-02-16 04:36:00,
2013-02-15 23:41:00,29.4,23.4,29.68,ENE,68,0.0,0.0,78,0.00,,,0.00,WUHU216HW,2013-02-16 04:41:00,
2013-02-15 23:46:00,29.3,23.2,29.69,ENE,68,0.0,0.0,78,0.00,,,0.00,WUHU216HW,2013-02-16 04:46:00,
2013-02-15 23:51:00,29.1,23.0,29.69,ENE,68,0.0,0.0,78,0.00,,,0.00,WUHU216HW,2013-02-16 04:51:00,
2013-02-15 23:56:00,29.1,23.0,29.70,ENE,68,0.0,0.0,78,0.00,,,0.00,WUHU216HW,2013-02-16 04:56:00,